Location: Comstock Ranch
(38.0499°N, 120.2627°W)
Time: 21:55:21
(UTC+00:00)

Cosmos 1339 Rocket - Pass Details

Date: 08 September 2024
Orbit: 942 x 1004 km, 82.9° (Epoch: 12 October)

Event Time Altitude Azimuth Distance (km) Brightness Sun altitude
Exits shadow 12:11:33 - 190° (S) 3,318 7.0 -17.2°
Reaches altitude 10° 12:13:17 10° 192° (SSW) 2,659 6.5 -16.8°
Maximum altitude 12:19:21 75° 277° (W) 979 4.3 -15.7°
Drops below altitude 10° 12:25:26 10° 3° (N) 2,667 7.1 -14.6°
Sets 12:27:56 0° 5° (N) 3,617 7.8 -14.1°
